{"data":{"norad_id":48060,"epoch":"2026-05-25T01:21:35.362656Z","epoch_age_seconds":76886,"freshness":"FRESH","line1":"1 48060U 21025U   26145.05665929 -.00000226  00000+0 -65347-3 0  9997","line2":"2 48060  87.8943 324.8345 0002165  72.8105 287.3261 13.13468906250529","mean_motion":13.13468906,"eccentricity":0.0002165,"inclination_deg":87.8943,"raan_deg":324.8345,"arg_perigee_deg":72.8105,"mean_anomaly_deg":287.3261,"bstar":-0.00065347,"rev_number":25052,"period_min":109.63335282792,"perigee_km":1208.1268314724,"apogee_km":1211.412395036,"semimajor_km":7587.9066132542,"source":"CELESTRAK","updated_at":"2026-05-25T13:38:22.391451Z"}}